Sauk Centre, MN

6:55 AM CDT on April 24, 2018 (GMT -0500)
Sauk Centre

Weather History for KD39 - September, 2013

Change the Weather History Date:

Thursday, September 26, 2013

  Actual Average (KGHW) Record (KGHW)
Temperature  
Mean Temperature 66 °F -  
Max Temperature 79 °F 67 °F 89 °F (2008)
Min Temperature 54 °F 41 °F 23 °F (1984)
Cooling Degree Days 2    
Growing Degree Days 16 (Base 50)    
Moisture  
Dew Point 55 °F    
Average Humidity 69    
Maximum Humidity 85    
Minimum Humidity 48    
Precipitation  
Precipitation 0.00 in - - ()
Sea Level Pressure  
Sea Level Pressure 29.82 in    
Wind  
Wind Speed 13 mph (SE)    
Max Wind Speed 26 mph    
Max Gust Speed 34 mph    
Visibility 10 miles    
Events      
Averages and records for this station are not official NWS values.
T = Trace of Precipitation, MM = Missing Value Source: NWS Daily Summary

Daily Weather History Graph

Daily Weather History Graph

Search for Another Location

Airport or City:

Astronomy

Sep. 26, 2013 Rise Set
Actual Time 7:12 AM CDT 7:08 PM CDT
Civil Twilight 6:42 AM CDT 7:38 PM CDT
Nautical Twilight 6:07 AM CDT 8:13 PM CDT
Astronomical Twilight 5:32 AM CDT 8:48 PM CDT
Moon 11:52 PM CDT (9/26) 2:20 PM CDT (9/26)
Length of Visible Light 12h 56m
Length of Day
11h 56m
Waning Gibbous, 54% of the Moon is Illuminated
Sep 26
Waning Gibbous
Sep 26
Last Quarter
Oct 4
New
Oct 11
First Quarter
Oct 18
Full

Hourly Weather History & Observations

Time (CDT) Temp. Dew Point Humidity Pressure Visibility Wind Dir Wind Speed Gust Speed Precip Events Conditions
12:11 AM 57.7 °F 50.4 °F 76% 29.87 in 10.0 mi ESE 10.4 mph - N/A   Clear
12:32 AM 57.2 °F 50.2 °F 77% 29.87 in 10.0 mi ESE 9.2 mph - N/A   Clear
12:51 AM 57.0 °F 50.0 °F 77% 29.87 in 10.0 mi ESE 8.1 mph - N/A   Clear
1:12 AM 57.7 °F 50.0 °F 75% 29.87 in 10.0 mi ESE 11.5 mph 16.1 mph N/A   Clear
1:32 AM 57.7 °F 50.2 °F 76% 29.87 in 10.0 mi ESE 10.4 mph - N/A   Clear
1:51 AM 57.6 °F 50.4 °F 77% 29.86 in 10.0 mi ESE 11.5 mph - N/A   Clear
2:12 AM 57.2 °F 50.5 °F 78% 29.85 in 10.0 mi ESE 12.7 mph 16.1 mph N/A   Clear
2:31 AM 57.2 °F 50.5 °F 78% 29.85 in 10.0 mi SE 10.4 mph 18.4 mph N/A   Clear
2:51 AM 57.2 °F 50.9 °F 79% 29.84 in 10.0 mi ESE 11.5 mph 17.3 mph N/A   Clear
3:12 AM 56.7 °F 50.9 °F 81% 29.85 in 10.0 mi ESE 11.5 mph - N/A   Clear
3:31 AM 56.5 °F 50.7 °F 81% 29.85 in 10.0 mi SE 11.5 mph - N/A   Clear
3:51 AM 56.5 °F 50.9 °F 82% 29.85 in 10.0 mi SE 11.5 mph - N/A   Clear
4:12 AM 56.5 °F 50.7 °F 81% 29.85 in 10.0 mi ESE 12.7 mph - N/A   Clear
4:31 AM 55.8 °F 50.7 °F 83% 29.85 in 10.0 mi ESE 10.4 mph - N/A   Clear
4:52 AM 55.6 °F 50.9 °F 84% 29.85 in 10.0 mi ESE 9.2 mph - N/A   Scattered Clouds
5:11 AM 55.4 °F 50.7 °F 84% 29.84 in 10.0 mi ESE 10.4 mph - N/A   Scattered Clouds
5:31 AM 55.4 °F 50.7 °F 84% 29.84 in 10.0 mi ESE 10.4 mph - N/A   Clear
5:52 AM 55.0 °F 50.5 °F 85% 29.84 in 10.0 mi ESE 10.4 mph - N/A   Clear
6:11 AM 55.2 °F 50.5 °F 84% 29.84 in 10.0 mi ESE 11.5 mph - N/A   Clear
6:32 AM 54.9 °F 50.4 °F 85% 29.84 in 10.0 mi ESE 9.2 mph - N/A   Clear
6:51 AM 55.0 °F 50.4 °F 84% 29.84 in 10.0 mi ESE 11.5 mph - N/A   Clear
7:12 AM 55.4 °F 50.4 °F 83% 29.84 in 10.0 mi ESE 11.5 mph - N/A   Clear
7:31 AM 55.4 °F 50.4 °F 83% 29.84 in 10.0 mi ESE 10.4 mph - N/A   Clear
7:52 AM 56.3 °F 50.9 °F 82% 29.85 in 10.0 mi ESE 12.7 mph - N/A   Clear
8:11 AM 57.4 °F 51.1 °F 79% 29.84 in 10.0 mi ESE 12.7 mph 19.6 mph N/A   Clear
8:31 AM 58.5 °F 51.8 °F 79% 29.84 in 10.0 mi ESE 15.0 mph 21.9 mph N/A   Clear
8:51 AM 59.9 °F 52.9 °F 78% 29.84 in 10.0 mi SE 17.3 mph 23.0 mph N/A   Clear
9:11 AM 60.8 °F 53.6 °F 77% 29.84 in 10.0 mi SE 16.1 mph 21.9 mph N/A   Clear
9:32 AM 61.9 °F 54.1 °F 76% 29.85 in 10.0 mi SE 15.0 mph 24.2 mph N/A   Clear
9:51 AM 63.3 °F 55.2 °F 75% 29.85 in 10.0 mi SE 16.1 mph 23.0 mph N/A   Clear
10:12 AM 64.9 °F 55.9 °F 73% 29.85 in 10.0 mi SE 16.1 mph 24.2 mph N/A   Scattered Clouds
10:31 AM 66.2 °F 56.5 °F 71% 29.84 in 10.0 mi SSE 17.3 mph 31.1 mph N/A   Scattered Clouds
10:51 AM 67.3 °F 57.2 °F 70% 29.83 in 10.0 mi SE 17.3 mph 33.4 mph N/A   Clear
11:12 AM 68.7 °F 57.6 °F 67% 29.83 in 10.0 mi SE 20.7 mph 28.8 mph N/A   Clear
11:31 AM 69.8 °F 57.7 °F 65% 29.82 in 10.0 mi SE 19.6 mph 28.8 mph N/A   Clear
11:51 AM 71.2 °F 58.1 °F 63% 29.82 in 10.0 mi SSE 20.7 mph 32.2 mph N/A   Clear
12:11 PM 72.7 °F 58.1 °F 60% 29.81 in 10.0 mi SE 21.9 mph 31.1 mph N/A   Clear
12:31 PM 73.2 °F 57.9 °F 59% 29.80 in 10.0 mi SE 26.5 mph 31.1 mph N/A   Clear
12:52 PM 73.9 °F 58.5 °F 58% 29.80 in 10.0 mi SE 23.0 mph 29.9 mph N/A   Clear
1:11 PM 75.2 °F 59.0 °F 57% 29.79 in 10.0 mi SE 20.7 mph 26.5 mph N/A   Clear
1:31 PM 75.9 °F 58.5 °F 55% 29.78 in 10.0 mi SE 24.2 mph 28.8 mph N/A   Clear
1:51 PM 76.5 °F 58.3 °F 53% 29.78 in 10.0 mi SE 16.1 mph 33.4 mph N/A   Clear
2:11 PM 77.2 °F 57.9 °F 51% 29.77 in 10.0 mi SE 24.2 mph 34.5 mph N/A   Clear
2:32 PM 77.9 °F 57.9 °F 50% 29.77 in 10.0 mi SE 21.9 mph 28.8 mph N/A   Clear
2:51 PM 78.3 °F 57.4 °F 49% 29.77 in 10.0 mi SE 20.7 mph 33.4 mph N/A   Clear
3:11 PM 78.8 °F 57.7 °F 48% 29.77 in 10.0 mi SE 24.2 mph 28.8 mph N/A   Clear
3:31 PM 79.3 °F 58.3 °F 48% 29.76 in 10.0 mi SE 20.7 mph 28.8 mph N/A   Clear
3:51 PM 79.0 °F 58.5 °F 49% 29.76 in 10.0 mi SE 19.6 mph 27.6 mph N/A   Clear
4:11 PM 79.3 °F 58.6 °F 49% 29.76 in 10.0 mi SE 20.7 mph 25.3 mph N/A   Clear
4:32 PM 79.7 °F 58.5 °F 48% 29.77 in 10.0 mi SE 18.4 mph 28.8 mph N/A   Clear
4:51 PM 79.5 °F 58.5 °F 48% 29.77 in 10.0 mi SSE 15.0 mph 21.9 mph N/A   Clear
5:11 PM 79.2 °F 58.5 °F 49% 29.77 in 10.0 mi SSE 18.4 mph 23.0 mph N/A   Clear
5:31 PM 78.8 °F 58.6 °F 50% 29.78 in 10.0 mi SE 18.4 mph 23.0 mph N/A   Clear
5:51 PM 78.3 °F 58.8 °F 51% 29.78 in 10.0 mi SE 15.0 mph 24.2 mph N/A   Clear
6:12 PM 77.4 °F 59.0 °F 53% 29.78 in 10.0 mi SE 12.7 mph - N/A   Clear
6:31 PM 76.3 °F 59.0 °F 55% 29.78 in 10.0 mi SE 11.5 mph - N/A   Clear
6:52 PM 74.8 °F 59.0 °F 58% 29.78 in 10.0 mi ESE 11.5 mph - N/A   Clear
7:11 PM 73.9 °F 59.0 °F 59% 29.79 in 10.0 mi SE 11.5 mph - N/A   Clear
7:31 PM 73.4 °F 59.0 °F 61% 29.79 in 10.0 mi ESE 9.2 mph - N/A   Clear
7:52 PM 71.6 °F 59.2 °F 65% 29.80 in 10.0 mi ESE 11.5 mph - N/A   Clear
8:11 PM 71.4 °F 59.0 °F 65% 29.81 in 10.0 mi ESE 10.4 mph - N/A   Clear
8:31 PM 70.0 °F 59.2 °F 68% 29.81 in 10.0 mi ESE 10.4 mph - N/A   Clear
8:51 PM 69.8 °F 59.2 °F 69% 29.82 in 10.0 mi ESE 10.4 mph - N/A   Clear
9:11 PM 69.8 °F 59.4 °F 69% 29.82 in 10.0 mi ESE 10.4 mph - N/A   Clear
9:32 PM 69.1 °F 59.2 °F 71% 29.82 in 10.0 mi ESE 10.4 mph - N/A   Clear
9:51 PM 69.1 °F 59.2 °F 71% 29.83 in 10.0 mi ESE 10.4 mph - N/A   Clear
10:11 PM 68.9 °F 59.2 °F 71% 29.83 in 10.0 mi SE 12.7 mph 16.1 mph N/A   Clear
10:31 PM 69.1 °F 59.2 °F 71% 29.84 in 10.0 mi SE 12.7 mph - N/A   Clear
10:51 PM 68.5 °F 59.2 °F 72% 29.84 in 10.0 mi SE 12.7 mph 17.3 mph N/A   Clear
11:11 PM 68.2 °F 59.2 °F 73% 29.84 in 10.0 mi SE 12.7 mph 18.4 mph N/A   Clear
11:31 PM 68.0 °F 59.0 °F 73% 29.84 in 10.0 mi SE 12.7 mph - N/A   Clear
11:51 PM 67.3 °F 59.0 °F 75% 29.85 in 10.0 mi SE 12.7 mph - N/A   Clear